Portada
METAR-TAF:

METAR-TAF

Aeroports :

Longreach, Austràlia

latitud: 23-26-03S, longitud: 144-16-49E, altitud: 191 m

Observació

L'informe es va fer fa 20 minuts, a les 21:00 UTC
Vent 7 kt del Sud-Oest
Temperatura 24°C
Humitat 38%
Pressió 1009 hPa
Visibilitat 10 km o més

METAR: YLRE 192100Z AUTO 23007KT 9999 // NCD 24/09 Q1009

Hora: 07:20 (21:20 UTC)


TAF: manca

Observacions i pronòstics meteorològics de més de 4000 aeroports (METAR i TAF).

Les estacions disponibles són els punts grocs i vermells al mapa.

Posi el ratolí al punt desitjat per veure el nom de l'estació.

Feu clic per veure les observacions i els pronòstics meteorològics.

Per canviar el mapa: feu clic els botons verds amb una creu de color negre per apropar; al botó verd amb un guió per allunyar la imatge; o en les fletxes verdes per a mapes adjacents.


METAR-TAF: